Regional Weather Roundup
Issued by NWS

Home | Current Version | Previous Version | Graphics & Text | Print | Product List | Glossary On
Versions: 1 2 3 4 5 6 7 8 9 10 11 12 13 14 15 16 17 18 19 20 21 22 23 24 25 26 27 28 29 30 31 32 33 34 35 36 37 38 39 40 41 42 43 44 45 46 47 48 49 50
000
ASUS43 KLMK 221210
RWRKY
KENTUCKY REGIONAL WEATHER ROUNDUP
NATIONAL WEATHER SERVICE LOUISVILLE KY
800 AM EDT MON SEP 22 2014

NOTE "FAIR" INDICATES FEW OR NO CLOUDS BELOW 12,000 FEET
WITH NO SIGNIFICANT WEATHER AND/OR OBSTRUCTIONS TO VISIBILITY.

KYZ001>023-026-027-061>063-070>075-221300-
WESTERN AND SOUTH CENTRAL KENTUCKY

CITY           SKY/WX    TMP DP  RH WIND       PRES   REMARKS
PADUCAH        CLEAR     54  48  80 NW3       30.20R
HENDERSON      PTCLDY    52  48  87 N3        30.22R
OWENSBORO      CLEAR     55  51  86 VRB3      30.21R
HOPKINSVILLE   CLEAR     53  52  97 N2        30.18R
BOWLING GREEN  CLEAR     51  48  89 CALM      30.18R
GLASGOW        CLEAR     51  49  95 CALM      30.18R
$$

KYZ024-025-028>034-038-045-046-053-221300-
NORTH CENTRAL KENTUCKY

CITY           SKY/WX    TMP DP  RH WIND       PRES   REMARKS
LOUISVILLE/SDF CLEAR     55  49  80 N7        30.20R
LOUISVILLE/LOU CLEAR     54  48  80 N5        30.20R
FORT KNOX      CLEAR     51  48  90 N7        30.18R
$$

KYZ035>037-039>044-047>052-055>060-089>105-221300-
NORTHEAST KENTUCKY

CITY           SKY/WX    TMP DP  RH WIND       PRES   REMARKS
LEXINGTON      CLEAR     50  46  86 N6        30.18R
COVINGTON      PTCLDY    47  41  80 NW9       30.18R
FRANKFORT      CLEAR     47  44  90 NW3       30.17R
$$

KYZ054-064>069-076>088-106>120-221300-
SOUTHEAST KENTUCKY

CITY           SKY/WX    TMP DP  RH WIND       PRES   REMARKS
JACKSON        CLEAR     51  47  86 N5        30.15R
LONDON         CLEAR     50  46  86 CALM      30.16R
SOMERSET       CLEAR     50  46  87 CALM      30.18R
MIDDLESBORO    CLEAR     50  49  97 CALM      30.15R
MONTICELLO     SUNNY     48  47  97 CALM      30.19R
$$



USA.gov is the U.S. government's official web portal to all federal, state and local government web resources and services.